Location: Demmingen
(48.6757°N, 10.4375°E)
Time: 19:37:36
(UTC+00:00)

Cosmos 1745 Rocket - Pass Details

Date: 23 May 2024
Orbit: 953 x 997 km, 83.0° (Epoch: 23 June)

Event Time Altitude Azimuth Distance (km) Brightness Sun altitude
Exits shadow 00:48:38 24° 176° (S) 1,886 5.0 -17.6°
Maximum altitude 00:52:33 75° 96° (E) 1,013 4.1 -17.3°
Drops below altitude 10° 00:58:50 10° 12° (NNE) 2,751 7.6 -16.9°
Sets 01:01:23 0° 11° (N) 3,709 8.6 -16.7°
